Regional Weather Roundup
Issued by NWS Upton, NY

Current Version | Previous Version | Text Only | Print | Product List | Glossary On
Versions: 1 2 3 4 5 6 7 8 9 10 11 12 13 14 15 16 17 18 19 20 21 22 23 24 25 26 27 28 29 30 31 32 33 34 35 36 37 38 39 40 41 42 43 44 45 46 47 48 49 50
000
ASUS41 KOKX 192209
RWROKX

REGIONAL WEATHER ROUNDUP
NATIONAL WEATHER SERVICE NEW YORK NY
600 PM EDT WED JUL 19 2017

NOTE: "FAIR" INDICATES FEW OR NO CLOUDS BELOW 12,000 FEET WITH NO
SIGNIFICANT WEATHER AND/OR OBSTRUCTIONS TO VISIBILITY.

NYZ071-072-176-178-NJZ106-104-192300-
NEW YORK CITY METRO AREA

CITY           SKY/WX    TMP DP  RH WIND       PRES   REMARKS
Central Park   SUNNY     89  67  47 VRB5      29.98F HX  92
Bronx Bot Gard   N/A     91  63  38 N2        29.96F HX  92
LaGuardia APRT MOSUNNY   92  67  43 NW7       29.94F HX  95
Kennedy INTL   MOSUNNY   83  74  74 S16       29.97S
Breezy Point     N/A     77 N/A N/A S10G16      N/A
Newark/Liberty MOSUNNY   94  64  37 W15       29.95S HX  95
Teterboro      MOSUNNY   92  65  40 NW8       29.94S HX  94
$$

NYZ177-179-078>081-192300-
LONG ISLAND NEW YORK

CITY           SKY/WX    TMP DP  RH WIND       PRES   REMARKS
Jones Beach      N/A     79 N/A N/A S9G16       N/A
Matinecock PT    N/A     88 N/A N/A SW10        N/A
Farmingdale    SUNNY     83  71  67 SW15      29.97S
MacArthur/ISP  MOSUNNY   84  72  67 SW14G21   29.97S
Shirley        SUNNY     84  73  69 SW13G21   29.98S HX  90
Mt Sinai Harb    N/A     86 N/A N/A SW7G13      N/A
Westhampton    SUNNY     81  70  69 SW13G23   29.99F
East Hampton   FAIR      81  72  75 SW10G20   29.96F
Montauk        NOT AVBL
$$

NYZ052-065-067-192300-
HUDSON VALLEY

CITY           SKY/WX    TMP DP  RH WIND       PRES   REMARKS
White Plains   NOT AVBL
Larchmont Harb   N/A     84 N/A N/A S5          N/A
Croton O-T Hud   N/A     88 N/A N/A W8          N/A
Newburgh       SUNNY     90  57  33 NW12      29.98S
Montgomery     SUNNY     89  58  34 NW7       29.97R
Poughkeepsie   SUNNY     90  57  32 W8        29.94S
Albany         PTSUNNY   83  63  50 NW7       29.97S
$$

NJZ001-105-106-008-010-013-015-019>022-104-192300-
NEW JERSEY

CITY           SKY/WX    TMP DP  RH WIND       PRES   REMARKS
Newark/Liberty MOSUNNY   94  64  37 W15       29.95S HX  95
Teterboro      MOSUNNY   92  65  40 NW8       29.94S HX  94
Caldwell       SUNNY     91  65  41 W6        29.96F HX  93
Somerville     SUNNY     91  70  49 VRB3      29.94F HX  96
Linden         NOT AVBL
Perth Amboy      N/A     90 N/A N/A W10         N/A
Sussex         SUNNY     89  67  47 NW3       29.99S HX  92
Andover          N/A     86  73  65 CALM      29.99S HX  93
Trenton        SUNNY     92  66  42 W6        29.96F HX  94
Millville      SUNNY     85  75  72 VRB5      29.99F HX  93
Atlantic City  CLOUDY    86  73  65 S13       29.98F HX  93
Wrightstown    SUNNY     93  65  39 NW7       29.94F HX  95
Toms River     SUNNY     89  74  60 S12       29.98F HX  98
Belmar         SUNNY     86  74  67 S7        29.98F HX  94
$$

PAZ047>061-062-071-192300-
EASTERN PENNSYLVANIA

CITY           SKY/WX    TMP DP  RH WIND       PRES   REMARKS
Philadelphia   MOSUNNY   93  68  43 SW10      29.97F HX  97
Allentown      SUNNY     91  69  48 W8        29.98F HX  96
Scranton       MOSUNNY   89  67  47 NE5       30.00F HX  92
$$

CTZ002-004>006-009-010-012-RIZ004-006-007-MAZ004-011-015-192300-
SOUTHERN NEW ENGLAND
 IN CT

CITY           SKY/WX    TMP DP  RH WIND       PRES   REMARKS
Bradley INTL   MOSUNNY   91  62  37 NW8       29.94S HX  91
Hartford       SUNNY     91  63  39 W8        29.92F HX  92
Danbury        SUNNY     88  62  41 SW8       29.98S
Wtrbury/Oxford SUNNY     86  59  39 W5        30.00S
Bridgeport     SUNNY     93  61  34 W8        29.94F HX  93
Meriden        SUNNY     88  62  41 W8        29.94S
New Haven      SUNNY     89  64  43 W6        29.95S HX  90
Chester        FAIR      88  70  55 CALM      29.96S HX  92
Groton         SUNNY     79  72  79 SW8       29.94F
Wilimantic     SUNNY     91  64  40 W6        29.94S HX  92

 IN RI

CITY           SKY/WX    TMP DP  RH WIND       PRES   REMARKS
Providence     MOSUNNY   86  74  67 SW14      29.93F HX  94
Block Island   SUNNY     79  73  82 SW14G21   29.97F
Westerly       SUNNY     82  73  74 S12       29.96F
 IN MA

CITY           SKY/WX    TMP DP  RH WIND       PRES   REMARKS
Boston         MOSUNNY   90  65  43 W12G18    29.90S HX  92
Worcester      SUNNY     85  59  41 W12       29.97F
Westfield      SUNNY     89  65  44 W10G16    29.94S HX  91
Provincetown   SUNNY     78  72  81 SW16G23   29.93F
Nantucket      PTSUNNY   74  73  97 SW9       29.97S
$$

ANZ330-335-338-340-345-350-353-355-192300-
COASTAL MARINE OBSERVATIONS


STATION/POSITION TIME  SKY/WX   TEMP    WIND        PRES    VSBY  WAVE
                                AIR SEA DIR/SP/G                  HT/PER
                 (UTC)          (F)     (DEG/KT/KT) (MB)    (MI)  (FT/S)
NY HARB ENTRANCE 2150            78 76  200/ 14/ 17 1014.2          3/ 4
20 S FIRE ISLAND 2150            78 76  210/ 16/ 17 1014.4          3/ 4
GREAT SOUTH BAY  2115            79 82  230/ 16/ 19   N/A
23 SSW MONTAUK P 2050            77 76              1015.0          3/ 4
15 E BARNEGAT LI 2130               79                N/A           3/17
HUDSON CANYON    2050            79 80  210/ 14/ 16 1015.3          3/16
KINGS POINT      2130            83 74  200/ 11/ 13 1014.3
EXECUTION ROCKS  2145            85     170/  8/ 12   N/A
CENTRAL LI SOUND 2145            83     260/ 10/ 12   N/A           0
EASTERN LI SOUND NOT AVBL
ROBBINS REEF     2130                   300/  9/ 15 1014.9
$$


>>>>>>>>>>>>>>>>>>>>>>>>>>>> KEY <<<<<<<<<<<<<<<<<<<<<<<<<<<
>                                                          <
>     SKY/WX - Sky Condition/Present Weather               <
>     TMP    - Temperature in Fahrenheit                   <
>     DP     - Dew Point in Fahrenheit                     <
>     RH     - Relative Humidity in Percent                <
>     WIND   - Direction (from) and Speed in MPH           <
>     PRES   - Mean Sea Level Pressure (inches of Hg)      <
>     WCI    - Wind Chill Index                            <
>     VSB    - VISIBILITY IN MILES                         <
>     HX     - HEAT INDEX                                  <
>     TC     - TEMPERATURE IN CELSIUS                      <
>     VRB    - VARIABLE WIND DIRECTION                     <
>                                                          <
>>>>>>>>>>>>>>>>>>>>>>>>>>>> KEY <<<<<<<<<<<<<<<<<<<<<<<<<<<



USA.gov is the U.S. government's official web portal to all federal, state and local government web resources and services.